[[{"header":{"parameterUnit":"m.s-1","parameterCategory":1,"la1":30.2992,"la2":30.254,"lo1":-89.0895,"lo2":-89.0443,"dy":0.0025,"dx":0.0025,"nx":19,"ny":19,"refTime":"2026-04-17T03:00:00:Z","depth":0,"parameterNumber":2,"parameterNumberName":"U-component_of_WINDS"},"data":[0,0,0,0.7026,0.703,0.7236,0.7237,0.7469,0.7471,0,0,0,0,0,0,0,0,0,0,0,0.6947,0.6948,0.7025,0.703,0.7236,0.7237,0.7468,0.7471,0,0,0,0,0,0,0,0,0,0,0,0.6946,0.6947,0.6949,0.7031,0.7236,0.7237,0.7468,0.7324,0,0,0,0,0,0,0,0,0,0,0.7129,0.7038,0.6947,0.6949,0.7032,0.7235,0.7237,0.7317,0.7333,0.7362,0,0.7385,0,0.7431,0.7484,0.7485,0,0,0,0.7043,0.7025,0.7097,0.6949,0.7033,0.7235,0.7147,0.7326,0.7343,0.7382,0.7389,0.7398,0.7435,0.7485,0.7486,0.7616,0.7616,0,0,0.7032,0.6974,0.7085,0.7108,0.7075,0.714,0.7153,0.7337,0.7339,0.7389,0.7404,0.7439,0.7487,0.7488,0.7616,0.7616,0,0,0,0.699,0.6965,0.7033,0.7097,0.7137,0.7146,0.7161,0.7331,0.7358,0.7407,0.7442,0.7488,0.749,0.7616,0.7616,0.7558,0,0,0,0.6984,0.6941,0.7028,0.6994,0.7133,0.7237,0.715,0.7345,0.7368,0.744,0.7488,0.7492,0.7616,0.7616,0.756,0.7541,0,0,0,0.6939,0.6936,0.696,0.6991,0.7077,0.7235,0.7274,0.7352,0.7389,0.7485,0.7493,0.7616,0.7616,0.7562,0.7543,0.7557,0,0,0,0.6874,0.6906,0.6958,0.7006,0.7075,0.7198,0.7273,0.7368,0.7443,0.7489,0.7616,0.7616,0.7562,0.7545,0.7558,0.7558,0.7552,0,0,0.6881,0.6904,0.6938,0.699,0.709,0.7172,0.7263,0.7387,0.7449,0.7556,0.756,0.756,0.7544,0.7558,0.7543,0.7538,0,0,0,0.692,0.6943,0.6982,0.7052,0.7148,0.7228,0.7344,0.739,0.7484,0.7493,0.7571,0.7563,0.7573,0.7576,0.7572,0.7584,0.7615,0.7615,0.7615,0.6845,0.6924,0.6984,0.7086,0.7153,0.7273,0.7333,0.7416,0.7475,0.7492,0.7524,0.7506,0.7506,0.7503,0.7515,0.7531,0.753,0.753,0.753,0.6862,0.6906,0.6985,0.7071,0.7153,0.7225,0.7342,0.7381,0.746,0.7488,0.7501,0.7524,0.7496,0.751,0.7527,0.7527,0.7528,0.7528,0.7528,0.6821,0.6856,0.6912,0.702,0.7095,0.7198,0.7271,0.7343,0.7412,0.7425,0.7466,0.7467,0.7476,0.7439,0.7439,0.7439,0.7439,0.7439,0.7439,0.6755,0.6821,0.6873,0.6978,0.7032,0.7112,0.7233,0.7288,0.7367,0.7414,0.7415,0.7471,0.7479,0.7479,0.7438,0.7439,0.7439,0.7439,0.7439,0.674,0.6756,0.6836,0.6891,0.7019,0.7088,0.718,0.7286,0.7342,0.7375,0.7429,0.7424,0.7452,0.7456,0.7456,0.7413,0.7413,0.7413,0.7413,0.6705,0.6727,0.6826,0.6908,0.6996,0.7088,0.7175,0.7269,0.7368,0.7408,0.7425,0.7432,0.7432,0.746,0.7464,0.7466,0.7425,0.7425,0.7425,0.6699,0.6734,0.6795,0.6893,0.6999,0.7088,0.7172,0.7262,0.7378,0.7427,0.744,0.7439,0.7451,0.7451,0.7499,0.7503,0.7508,0,0]},{"header":{"parameterUnit":"m.s-1","parameterCategory":1,"la1":30.2992,"la2":30.254,"lo1":-89.0895,"lo2":-89.0443,"dy":0.0025,"dx":0.0025,"nx":19,"ny":19,"refTime":"2026-04-17T03:00:00:Z","depth":0,"parameterNumber":3,"parameterNumberName":"V-component_of_WINDS"},"data":[0,0,0,4.4172,4.4173,4.4213,4.4213,4.4278,4.4279,0,0,0,0,0,0,0,0,0,0,0,4.4169,4.417,4.4172,4.4173,4.4213,4.4213,4.4278,4.4279,0,0,0,0,0,0,0,0,0,0,0,4.4169,4.417,4.4171,4.4173,4.4213,4.4213,4.4278,4.4243,0,0,0,0,0,0,0,0,0,0,4.4201,4.4208,4.417,4.4171,4.4173,4.4213,4.4213,4.4241,4.4245,4.4267,0,4.429,0,4.4286,4.4285,4.4285,0,0,0,4.4165,4.4205,4.4207,4.4171,4.4174,4.4213,4.4193,4.4243,4.4248,4.4272,4.429,4.4292,4.4287,4.4285,4.4285,4.4441,4.4442,0,0,4.4163,4.4181,4.4204,4.4211,4.4207,4.4191,4.4194,4.4245,4.4266,4.4291,4.4294,4.4288,4.4286,4.4286,4.444,4.4441,0,0,0,4.4162,4.418,4.4181,4.4209,4.4215,4.4193,4.4196,4.4263,4.4262,4.4294,4.4289,4.4286,4.4287,4.4439,4.4441,4.4513,0,0,0,4.416,4.4179,4.418,4.4192,4.4215,4.424,4.4213,4.4259,4.4264,4.4288,4.4286,4.4288,4.4438,4.444,4.4509,4.4544,0,0,0,4.4163,4.4179,4.4189,4.4193,4.4211,4.4239,4.424,4.4259,4.4261,4.4285,4.4288,4.4437,4.4439,4.4505,4.4537,4.4592,0,0,0,4.4172,4.4251,4.419,4.4277,4.4211,4.4284,4.424,4.4293,4.4322,4.4286,4.4438,4.444,4.4503,4.4533,4.4588,4.4642,4.4666,0,0,4.4282,4.4265,4.4314,4.4261,4.435,4.4276,4.4375,4.4383,4.4368,4.4417,4.4421,4.451,4.4537,4.4591,4.4793,4.4812,0,0,0,4.4355,4.4391,4.4411,4.4441,4.445,4.4462,4.4453,4.4457,4.4498,4.4398,4.4543,4.4559,4.459,4.4615,4.4631,4.4657,4.4453,4.4452,4.4452,4.4537,4.4515,4.4596,4.458,4.4609,4.4601,4.4622,4.4625,4.4592,4.4628,4.4642,4.4768,4.4797,4.481,4.4837,4.4668,4.4669,4.4669,4.4669,4.4697,4.4745,4.4702,4.4766,4.4742,4.4794,4.479,4.4766,4.4811,4.4754,4.478,4.4721,4.4832,4.4854,4.4674,4.4673,4.4673,4.4672,4.4672,4.4813,4.4833,4.4837,4.488,4.4914,4.4894,4.4941,4.4917,4.4894,4.492,4.4934,4.4932,4.4929,4.4928,4.4929,4.4929,4.4929,4.493,4.493,4.4933,4.4936,4.4979,4.4998,4.5015,4.5034,4.5028,4.5044,4.5055,4.5034,4.5034,4.4999,4.4846,4.4809,4.4937,4.4935,4.4935,4.4934,4.4933,4.5104,4.5063,4.5129,4.5147,4.5168,4.5205,4.5174,4.5209,4.5218,4.5242,4.5202,4.5093,4.5073,4.506,4.5029,4.5206,4.5206,4.5206,4.5206,4.5204,4.5192,4.5256,4.5286,4.5312,4.5292,4.5368,4.5365,4.5354,4.5358,4.5329,4.5286,4.5274,4.5261,4.5244,4.5214,4.5434,4.5434,4.5435,4.5308,4.5299,4.5368,4.536,4.5375,4.5389,4.546,4.5495,4.5474,4.5443,4.5362,4.5352,4.5282,4.526,4.5228,4.5201,4.5147,0,0]}]]